[[{"header":{"parameterUnit":"m.s-1","parameterCategory":1,"la1":30.2991,"la2":30.254,"lo1":-89.0895,"lo2":-89.0444,"dy":0.0017,"dx":0.0017,"nx":28,"ny":28,"refTime":"2024-02-06T09:00:00:Z","depth":0,"parameterNumber":2,"parameterNumberName":"U-component_of_WINDS"},"data":[0,0,0,0,0,0,0,0,0,0,0,0,0,0,0,0,0,0,0,0,0,0,0,0,0,0,0,0,0,0,0,0,0,0,0,0,0,0,0,0,0,0,0,0,0,0,0,0,0,0,0,0,0,0,0,0,0,0,-4.6028,-4.6029,0,-4.6116,-4.6117,-4.6118,-4.6104,-4.6103,-4.6101,-4.61,-4.6189,-4.6192,-4.6196,0,0,0,0,0,0,0,0,0,0,0,0,0,-4.5853,-4.5856,-4.6028,-4.6029,-4.603,-4.6115,-4.6117,-4.6118,-4.6104,-4.6103,-4.6101,-4.6099,-4.6187,-4.6192,-4.6196,0,0,0,0,0,0,0,0,0,0,0,0,0,-4.5934,-4.5857,-4.6028,-4.6034,-4.6035,-4.6115,-4.6117,-4.6118,-4.6105,-4.6102,-4.61,-4.6098,-4.6186,-4.6191,-4.6197,-4.6276,0,0,-4.6214,-4.6217,0,0,0,0,0,0,0,0,-4.5929,-4.594,-4.6032,-4.6034,-4.6035,-4.6097,-4.6087,-4.6171,-4.6105,-4.6078,-4.61,-4.6097,-4.616,-4.6167,-4.6189,-4.628,-4.6284,-4.6215,-4.6218,-4.622,-4.6222,0,0,0,0,0,0,0,-4.5923,-4.5936,-4.6063,-4.6033,-4.6036,-4.6033,-4.6042,-4.6103,-4.613,-4.6081,-4.608,-4.609,-4.616,-4.6183,-4.6191,-4.6285,-4.6214,-4.6219,-4.6223,-4.6225,-4.645,-4.6453,0,0,0,0,0,0,-4.5916,-4.5932,-4.606,-4.6065,-4.5976,-4.6038,-4.6048,-4.6079,-4.613,-4.6135,-4.6092,-4.6089,-4.6175,-4.6184,-4.6194,-4.629,-4.622,-4.6226,-4.6229,-4.6447,-4.6451,-4.6453,0,0,0,0,0,0,-4.5912,-4.5928,-4.6056,-4.5998,-4.6015,-4.6044,-4.6079,-4.6082,-4.6105,-4.6139,-4.6143,-4.611,-4.6173,-4.6186,-4.6256,-4.6293,-4.6228,-4.6233,-4.6444,-4.6448,-4.6452,-4.6484,0,0,0,0,0,0,-4.5907,-4.5926,-4.5955,-4.5999,-4.6018,-4.6117,-4.6081,-4.6085,-4.6115,-4.6112,-4.6157,-4.6162,-4.6173,-4.6248,-4.6262,-4.63,-4.6238,-4.6441,-4.6446,-4.6451,-4.648,-4.6488,-4.6496,0,0,0,0,0,-4.5901,-4.596,-4.5957,-4.5972,-4.6055,-4.6119,-4.6129,-4.614,-4.6118,-4.6148,-4.6171,-4.6161,-4.6288,-4.6255,-4.6271,-4.6311,-4.6439,-4.6445,-4.645,-4.6476,-4.6487,-4.6496,0,0,0,0,0,0,-4.5918,-4.5966,-4.5962,-4.6037,-4.6075,-4.6116,-4.6154,-4.6151,-4.6194,-4.619,-4.6202,-4.6212,-4.6284,-4.6305,-4.6268,-4.6392,-4.636,-4.637,-4.6375,-4.6385,-4.6393,-4.6385,-4.6242,0,0,0,0,0,-4.5931,-4.5979,-4.6018,-4.608,-4.6099,-4.6124,-4.6152,-4.6158,-4.6196,-4.6212,-4.6239,-4.6277,-4.6326,-4.6357,-4.6404,-4.6485,-4.6495,-4.6521,-4.6529,-4.6535,-4.6542,-4.6588,-4.66,-4.6473,-4.6473,-4.6473,0,0,-4.5957,-4.5989,-4.6018,-4.6085,-4.6114,-4.6164,-4.6137,-4.619,-4.6227,-4.622,-4.6287,-4.631,-4.6354,-4.643,-4.6465,-4.645,-4.658,-4.6543,-4.6548,-4.6551,-4.6595,-4.6607,-4.6618,-4.6477,-4.6476,-4.6475,0,0,-4.6029,-4.6059,-4.6114,-4.6146,-4.6191,-4.6208,-4.6222,-4.6266,-4.628,-4.635,-4.6346,-4.6392,-4.6475,-4.6507,-4.6534,-4.6626,-4.6619,-4.6641,-4.6682,-4.6727,-4.6737,-4.6746,-4.6778,-4.6789,-4.6649,-4.6649,-4.6649,0,-4.6055,-4.6129,-4.6143,-4.6198,-4.6228,-4.6227,-4.6284,-4.6314,-4.6372,-4.6393,-4.6377,-4.6484,-4.6513,-4.6598,-4.6621,-4.6643,-4.666,-4.6633,-4.6735,-4.6744,-4.6752,-4.6783,-4.6795,-4.6651,-4.6651,-4.6651,-4.665,0,-4.6159,-4.6212,-4.6252,-4.6309,-4.6345,-4.64,-4.6424,-4.6459,-4.6464,-4.6484,-4.6556,-4.6592,-4.6647,-4.6669,-4.6673,-4.6756,-4.6745,-4.6732,-4.6699,-4.6766,-4.6795,-4.6807,-4.6654,-4.6654,-4.6653,-4.6652,0,0,-4.6238,-4.6307,-4.6321,-4.6349,-4.6402,-4.6443,-4.6501,-4.6556,-4.6585,-4.6628,-4.6676,-4.6751,-4.674,-4.6771,-4.678,-4.682,-4.6891,-4.6802,-4.6803,-4.6816,-4.6984,-4.6991,-4.7005,-4.6889,-4.6891,-4.6893,-4.698,0,-4.6314,-4.6414,-4.6432,-4.652,-4.6569,-4.6572,-4.6623,-4.6662,-4.6684,-4.673,-4.6754,-4.6806,-4.6788,-4.6807,-4.6847,-4.6873,-4.6924,-4.6868,-4.6934,-4.6936,-4.6919,-4.702,-4.7027,-4.7107,-4.6992,-4.6994,-4.6995,0,-4.6414,-4.646,-4.6554,-4.6604,-4.6625,-4.667,-4.6724,-4.6768,-4.6814,-4.6827,-4.6865,-4.6871,-4.6933,-4.6902,-4.6988,-4.6949,-4.6979,-4.6997,-4.7,-4.7003,-4.6966,-4.7024,-4.7133,-4.7143,-4.7013,-4.7012,-4.701,0,-4.646,-4.6547,-4.6614,-4.6638,-4.6698,-4.673,-4.6757,-4.6801,-4.6834,-4.6883,-4.6904,-4.6959,-4.6988,-4.7032,-4.7053,-4.7029,-4.7138,-4.7109,-4.7151,-4.715,-4.7169,-4.7167,-4.7282,-4.7194,-4.7194,-4.7193,-4.7193,0,-4.6541,-4.6597,-4.6636,-4.6677,-4.6743,-4.6764,-4.6828,-4.6855,-4.6895,-4.6943,-4.695,-4.6995,-4.7022,-4.7072,-4.709,-4.7159,-4.7173,-4.7185,-4.7188,-4.7182,-4.7181,-4.7198,-4.7192,-4.7197,-4.7196,-4.7195,-4.7195,0,-4.66,-4.6629,-4.6703,-4.6756,-4.6771,-4.6816,-4.6862,-4.6903,-4.6928,-4.6988,-4.7004,-4.7042,-4.7101,-4.7129,-4.7201,-4.7214,-4.7292,-4.7293,-4.7275,-4.7276,-4.7316,-4.7311,-4.7443,-4.7461,-4.7364,-4.7365,-4.7366,0,-4.6648,-4.6692,-4.6751,-4.6784,-4.6812,-4.6864,-4.6899,-4.6925,-4.6961,-4.702,-4.7055,-4.7115,-4.7163,-4.7258,-4.7292,-4.7349,-4.735,-4.7393,-4.7358,-4.7352,-4.7349,-4.7344,-4.7349,-4.7397,-4.7398,-4.7399,-4.74,0,-4.6729,-4.6742,-4.6792,-4.6849,-4.689,-4.6936,-4.698,-4.7007,-4.704,-4.7082,-4.7142,-4.7181,-4.7257,-4.7317,-4.7377,-4.7406,-4.7409,-4.7412,-4.7424,-4.7416,-4.7404,-4.741,-4.7289,-4.7407,-4.7406,-4.7406,-4.7405,-4.7405,-4.6782,-4.6823,-4.6871,-4.6928,-4.6965,-4.7008,-4.705,-4.7082,-4.7133,-4.7197,-4.721,-4.7275,-4.7325,-4.7406,-4.7438,-4.749,-4.748,-4.7498,-4.7503,-4.7506,-4.7507,-4.7399,-4.7502,-4.7502,-4.7502,-4.7502,-4.7501,0,-4.6862,-4.6895,-4.6947,-4.7011,-4.7056,-4.7058,-4.7109,-4.7147,-4.7204,-4.7251,-4.73,-4.7372,-4.7431,-4.7473,-4.7534,-4.7568,-4.7571,-4.7583,-4.7578,-4.7585,-4.7513,-4.7496,-4.7579,-4.7579,-4.7579,-4.7579,-4.7579,-4.7579,-4.6908,-4.6977,-4.6997,-4.7086,-4.7119,-4.7183,-4.7212,-4.7252,-4.729,-4.737,-4.742,-4.7447,-4.7493,-4.7558,-4.7613,-4.7625,-4.7645,-4.7657,-4.7668,-4.7599,-4.759,-4.7582,-4.7565,-4.7662,-4.7663,-4.7735,-4.7736,-4.7736]},{"header":{"parameterUnit":"m.s-1","parameterCategory":1,"la1":30.2991,"la2":30.254,"lo1":-89.0895,"lo2":-89.0444,"dy":0.0017,"dx":0.0017,"nx":28,"ny":28,"refTime":"2024-02-06T09:00:00:Z","depth":0,"parameterNumber":3,"parameterNumberName":"V-component_of_WINDS"},"data":[0,0,0,0,0,0,0,0,0,0,0,0,0,0,0,0,0,0,0,0,0,0,0,0,0,0,0,0,0,0,0,0,0,0,0,0,0,0,0,0,0,0,0,0,0,0,0,0,0,0,0,0,0,0,0,0,0,0,2.0494,2.0495,0,2.0584,2.0585,2.0586,2.0696,2.0698,2.0699,2.0701,2.0789,2.079,2.079,0,0,0,0,0,0,0,0,0,0,0,0,0,2.0416,2.0417,2.0494,2.0495,2.0496,2.0584,2.0585,2.0586,2.0696,2.0698,2.07,2.0702,2.0789,2.079,2.079,0,0,0,0,0,0,0,0,0,0,0,0,0,2.0472,2.0417,2.0494,2.0561,2.0568,2.0584,2.0585,2.0587,2.0695,2.0698,2.07,2.0703,2.0788,2.079,2.0791,2.0745,0,0,2.0794,2.0794,0,0,0,0,0,0,0,0,2.0469,2.0475,2.055,2.0557,2.0565,2.0632,2.059,2.064,2.0695,2.0647,2.0701,2.0704,2.0734,2.074,2.0751,2.0749,2.0753,2.0794,2.0795,2.0795,2.0795,0,0,0,0,0,0,0,2.0465,2.0472,2.0529,2.0551,2.056,2.0587,2.0598,2.06,2.0675,2.0651,2.0659,2.0669,2.0739,2.075,2.0754,2.0754,2.0794,2.0795,2.0796,2.0796,2.0725,2.0722,0,0,0,0,0,0,2.0451,2.0468,2.0526,2.0532,2.0522,2.0586,2.0599,2.0607,2.0675,2.0688,2.0666,2.0674,2.0746,2.0752,2.0757,2.0711,2.0795,2.0796,2.0797,2.0727,2.0724,2.0721,0,0,0,0,0,0,2.0449,2.0455,2.0523,2.0502,2.0513,2.0585,2.0594,2.0608,2.0619,2.0687,2.07,2.0664,2.0749,2.0756,2.0749,2.0716,2.0797,2.0798,2.073,2.0726,2.0723,2.0617,0,0,0,0,0,0,2.0446,2.0454,2.0437,2.0501,2.0514,2.0512,2.0592,2.0608,2.0621,2.0631,2.0688,2.07,2.0751,2.0747,2.075,2.0719,2.0798,2.0733,2.0728,2.0724,2.0624,2.061,2.0598,0,0,0,0,0,2.0443,2.0402,2.0436,2.0442,2.0494,2.051,2.0517,2.0579,2.0618,2.0602,2.0646,2.0698,2.0719,2.0745,2.0749,2.0718,2.0736,2.073,2.0724,2.0629,2.0613,2.0599,0,0,0,0,0,0,2.0329,2.0411,2.0449,2.0428,2.0462,2.0529,2.051,2.0558,2.058,2.0589,2.0663,2.0675,2.0659,2.0688,2.0715,2.068,2.0735,2.073,2.0662,2.0646,2.0634,2.0627,2.0799,0,0,0,0,0,2.0302,2.0309,2.038,2.0354,2.0369,2.0437,2.0446,2.0491,2.0528,2.0542,2.0586,2.0619,2.0634,2.0642,2.0659,2.0629,2.0644,2.061,2.0597,2.0587,2.0581,2.0571,2.0557,2.0702,2.0703,2.0703,0,0,2.0245,2.0291,2.029,2.0332,2.0364,2.037,2.0448,2.0449,2.0455,2.0542,2.0539,2.0573,2.0615,2.0597,2.0592,2.0621,2.0545,2.0579,2.057,2.0571,2.0563,2.055,2.0537,2.0699,2.0699,2.07,0,0,2.0144,2.0179,2.0163,2.0194,2.0242,2.0288,2.0284,2.0345,2.0371,2.037,2.0437,2.0444,2.0467,2.0496,2.0513,2.0429,2.0478,2.0432,2.0365,2.0354,2.0343,2.0333,2.0305,2.0294,2.0427,2.0426,2.0426,0,2.0067,2.0079,2.0148,2.0147,2.0165,2.0248,2.0233,2.0259,2.0309,2.0319,2.0352,2.0386,2.042,2.0411,2.0391,2.0402,2.0401,2.0425,2.0339,2.033,2.0322,2.0296,2.0285,2.0421,2.0421,2.0422,2.0423,0,1.9983,1.999,1.9971,2.0021,2.0036,2.0028,2.0096,2.0104,2.0149,2.0191,2.0191,2.0236,2.0265,2.0266,2.0308,2.0265,2.0282,2.0326,2.0383,2.0301,2.0278,2.0268,2.0412,2.0415,2.0416,2.0418,0,0,1.9809,1.9901,1.9893,1.9918,1.9979,1.9986,1.9983,2.0014,2.0019,2.0052,2.0052,2.0072,2.0115,2.0134,2.0181,2.0171,2.0105,2.0217,2.022,2.0196,2.0062,2.0029,2.0016,2.0138,2.0137,2.0135,2.0059,0,1.9721,1.9721,1.9785,1.9767,1.9777,1.9858,1.9855,1.9893,1.9933,1.9947,1.9992,2.0006,2.006,2.0073,2.0067,2.0114,2.0079,2.012,2.0139,2.0139,2.0126,2.0004,1.9968,1.9893,2.005,2.0049,2.0048,0,1.9616,1.9646,1.963,1.9696,1.9702,1.9698,1.9734,1.9746,1.9791,1.9822,1.9846,1.9901,1.9903,1.9958,1.9963,1.999,2.0002,2.0026,2.0025,2.0029,2.0088,2.0005,1.9871,1.986,2.0034,2.0035,2.0036,0,1.9493,1.953,1.9526,1.9545,1.962,1.9617,1.9648,1.9696,1.9712,1.9743,1.9754,1.9784,1.98,1.9823,1.9884,1.9918,1.9883,1.9942,1.9909,1.9907,1.9897,1.9897,1.9764,1.9904,1.9904,1.9904,1.9904,0,1.9387,1.9374,1.9473,1.947,1.9459,1.9534,1.9521,1.956,1.9603,1.961,1.9681,1.9686,1.9768,1.9782,1.983,1.9829,1.9835,1.986,1.9873,1.9854,1.9851,1.9863,1.9869,1.9901,1.9902,1.9902,1.9903,0,1.9248,1.9313,1.9314,1.9388,1.9406,1.9395,1.9458,1.9459,1.9506,1.9514,1.952,1.9593,1.9615,1.9679,1.9716,1.9749,1.9733,1.9757,1.9718,1.9726,1.969,1.9693,1.956,1.9547,1.9694,1.9693,1.9691,0,1.9176,1.9169,1.9242,1.9253,1.9282,1.9298,1.9316,1.9391,1.9406,1.946,1.9455,1.9482,1.9508,1.9539,1.9595,1.9624,1.965,1.9602,1.9655,1.9637,1.9651,1.9651,1.9652,1.9589,1.9588,1.9586,1.9585,0,1.9042,1.9076,1.9099,1.9134,1.9154,1.9185,1.922,1.9225,1.9309,1.9323,1.9347,1.9367,1.9407,1.9434,1.9473,1.9506,1.9559,1.9568,1.9562,1.9542,1.9521,1.9534,1.9687,1.957,1.9572,1.9573,1.9574,1.9574,1.8935,1.8934,1.8987,1.9011,1.9047,1.9079,1.9085,1.9134,1.9156,1.9195,1.9238,1.9258,1.9307,1.9366,1.9395,1.9411,1.944,1.9431,1.9429,1.9425,1.9417,1.9518,1.9419,1.9419,1.942,1.942,1.942,0,1.8806,1.8846,1.8868,1.8916,1.8936,1.8988,1.903,1.9043,1.906,1.9102,1.9128,1.9157,1.9185,1.9245,1.9278,1.928,1.9306,1.9287,1.9287,1.9294,1.9389,1.9391,1.9266,1.9266,1.9266,1.9266,1.9266,1.9266,1.8742,1.8743,1.8784,1.8804,1.8844,1.8865,1.8886,1.8916,1.8951,1.8981,1.9005,1.9045,1.9095,1.9133,1.9162,1.9179,1.9188,1.9161,1.9186,1.9273,1.9287,1.9301,1.9304,1.9162,1.9162,1.909,1.9089,1.9089]}]]